Dewpoint
42 43 44 45 45 46 46 46 46 47 47 47 47 51 51 50 49 47 43 44 42 39 38 41 41 39 37 39 38 39 40 40 40 39 38 36 35 35 33 34 35 35 35 34 34 34 31 36 34 33 38 36 36 37
42 43 44 44 45 45 46 46 46 47 47 47 47 50 50 50 48 46 42 43 43 40 38 41 41 42 41 39 40 41 39 39 41 40 39 38 35 34 34 32 35 34 36 37 36 36 37 38 39 39 38 38 39 39
42 43 44 44 44 44 45 46 46 46 46 47 47 49 50 49 47 45 42 43 42 39 39 40 40 40 41 42 43 41 40 43 42 42 40 39 36 35 33 32 34 35 36 37 35 36 36 39 39 39 39 40 40 39
42 43 44 44 44 44 44 45 45 45 45 46 47 49 49 48 47 45 42 43 42 40 34 36 36 38 40 42 43 43 43 44 44 44 40 39 37 37 35 35 35 35 38 36 36 36 36 37 38 39 39 39 39 40
42 43 43 43 43 43 43 44 44 45 45 45 46 49 49 49 47 43 43 42 43 39 34 34 34 36 39 41 41 42 43 42 43 41 40 38 38 38 35 36 34 35 36 37 36 38 39 38 38 38 39 38 39 40
42 43 43 43 43 43 42 43 44 45 44 45 46 49 49 48 44 40 39 43 41 41 35 33 35 36 39 41 40 40 40 40 41 39 38 39 41 39 35 35 36 36 37 37 36 37 38 40 40 39 38 40 41 41
42 42 43 43 43 42 42 44 44 44 43 45 48 49 47 46 46 41 39 42 40 40 34 31 32 34 36 38 38 40 40 39 38 38 37 38 39 39 35 34 35 36 37 38 39 38 36 36 38 37 37 37 39 38
42 42 43 43 42 42 42 42 43 43 44 46 48 48 47 47 44 40 42 41 39 33 34 27 28 32 35 35 34 38 37 38 38 36 36 34 38 37 32 34 36 36 37 38 37 38 39 38 35 35 36 36 36 36
42 42 43 42 41 41 41 42 43 45 46 48 48 47 45 42 39 40 41 41 39 36 29 29 26 27 34 34 37 37 35 34 34 35 35 35 33 30 31 31 32 34 35 35 36 37 36 36 35 34 35 35 35 36
42 43 42 41 41 42 43 43 46 47 48 47 44 36 32 38 44 44 39 36 35 33 31 27 30 31 33 32 33 34 35 32 29 31 34 33 30 32 32 34 34 34 34 34 35 34 34 33 33 34 34 35 35 35
42 42 43 44 44 44 45 46 47 47 45 39 32 32 40 43 37 34 30 31 29 26 28 28 30 31 34 31 31 33 31 31 25 28 31 29 29 31 31 32 32 33 34 34 35 35 35 34 34 34 35 36 35 35
41 43 45 46 46 46 47 47 45 43 38 36 37 39 38 34 31 27 26 27 23 23 27 29 30 33 32 34 32 33 27 29 23 29 29 25 29 30 29 28 30 31 32 32 32 32 33 32 33 33 34 34 34 34
43 45 46 45 45 46 45 44 43 42 41 39 35 32 31 30 24 22 19 22 23 27 29 30 31 33 33 33 31 29 25 25 29 29 23 27 31 30 30 31 32 31 32 32 32 32 33 34 34 35 34 34 34 35
43 43 44 44 44 44 43 42 42 40 38 33 30 24 27 24 25 25 23 24 27 29 29 30 30 31 31 30 29 25 27 29 24 22 23 30 30 31 31 32 31 31 31 31 32 32 33 35 35 35 35 34 31 32
43 43 43 43 43 43 43 42 41 40 35 30 29 23 24 26 27 26 28 29 29 29 29 31 31 32 29 28 29 28 27 23 24 23 27 31 29 30 30 30 30 31 32 32 32 32 32 31 30 31 30 31 31 28
42 43 41 43 43 43 42 41 39 37 33 30 27 25 27 26 26 28 30 29 29 28 32 33 29 28 27 27 24 23 22 20 24 30 31 29 30 31 31 31 31 32 32 32 32 32 33 32 31 33 30 28 26 26
42 40 43 43 42 41 41 38 36 33 30 27 27 28 27 28 27 28 30 29 30 31 29 29 25 23 29 27 24 27 26 28 31 31 31 31 31 31 32 32 32 32 31 32 32 33 34 33 31 29 29 29 25 24
39 43 42 42 41 39 37 36 32 29 27 27 26 27 27 28 28 29 31 31 30 30 29 27 29 26 25 23 25 28 29 30 30 32 33 32 31 32 31 31 32 31 31 32 33 33 33 31 30 31 29 25 23 22
41 42 42 41 39 35 33 33 30 26 27 28 28 29 29 29 29 30 32 33 33 32 31 29 27 25 26 28 27 28 30 30 30 31 32 31 32 33 32 31 31 32 32 33 33 33 33 32 31 30 27 25 25 23
42 42 41 41 38 32 29 31 32 28 26 27 29 28 28 29 29 30 32 32 32 30 28 27 26 27 29 29 31 31 32 32 31 30 32 33 33 32 32 33 33 33 33 33 32 30 30 28 27 27 26 26 26 25
41 41 41 40 37 33 31 30 29 29 30 28 29 27 27 28 28 28 29 32 30 29 28 30 29 30 31 31 32 33 32 32 32 32 31 32 33 34 34 35 34 33 33 33 32 31 29 30 29 26 28 29 28 26
40 41 38 38 33 33 31 31 29 32 30 29 27 27 26 25 25 27 30 29 29 30 30 30 30 30 30 30 30 32 32 33 33 33 31 31 31 31 32 33 32 34 33 34 32 33 32 30 28 27 28 28 23 25
39 38 36 35 30 30 30 33 29 30 27 27 27 26 26 26 26 28 25 27 29 31 31 31 30 31 31 31 32 32 32 31 31 31 31 31 32 32 33 33 34 35 35 34 31 32 32 27 25 29 26 24 25 25
37 34 31 29 28 26 32 31 29 27 28 27 26 24 27 28 29 27 24 27 29 28 27 27 27 27 29 30 29 29 30 32 31 32 32 32 31 32 32 32 34 34 34 32 31 31 30 30 25 25 25 24 24 23
27 27 29 28 30 27 28 28 29 26 23 25 24 24 27 29 26 25 26 28 30 30 29 28 29 28 26 25 27 29 32 34 32 32 33 34 32 32 32 32 33 34 33 33 31 30 29 27 26 25 23 24 22 21
26 29 28 25 28 24 25 24 20 22 24 23 25 28 29 27 24 23 26 29 30 31 31 31 31 30 30 31 30 31 32 34 34 33 33 34 34 34 34 34 32 33 32 34 32 30 27 25 25 23 23 21 18 22
23 26 30 30 29 28 26 27 27 25 24 21 26 26 25 22 20 24 29 30 31 31 32 32 32 32 32 32 32 33 33 33 34 34 34 34 34 35 35 35 33 34 32 32 32 31 30 26 25 24 23 23 22 22
25 28 26 28 26 26 23 22 22 21 24 27 26 24 23 22 21 26 28 31 30 31 31 31 32 31 31 31 31 30 31 29 28 29 30 31 29 30 32 33 32 29 31 32 32 31 30 28 27 25 24 23 23 25
27 28 27 26 19 22 22 22 23 25 28 28 24 23 24 26 27 29 29 29 30 31 31 31 31 30 30 30 31 29 28 30 32 32 33 34 33 34 28 29 29 30 31 30 28 30 30 29 27 26 25 26 26 25
28 27 20 13 14 19 22 24 24 27 27 27 26 25 24 25 23 26 27 28 28 29 31 31 31 29 28 30 32 33 32 31 31 32 32 32 33 31 28 29 29 30 32 30 27 25 25 25 23 23 22 21 22 21
27 26 20 23 23 25 27 28 29 25 20 20 16 22 21 20 22 21 24 24 25 27 31 31 30 30 30 30 29 30 31 32 32 30 30 32 31 31 30 30 31 31 30 28 26 25 23 24 24 23 22 21 20 20
19 16 17 20 24 27 27 26 26 25 24 19 23 18 23 21 21 20 20 26 28 28 30 30 29 29 30 30 29 27 22 25 28 31 29 32 32 32 31 29 29 29 28 27 26 25 24 24 23 23 22 21 20 18
18 16 16 21 24 25 24 17 21 23 18 20 23 18 17 19 20 20 23 25 27 28 29 30 30 31 30 30 28 26 24 28 30 29 26 25 24 27 29 29 29 28 26 25 24 24 23 23 22 22 20 19 18 17
Lifted_Index
1 1 1 1 1 1 2 3 4 5 5 5 4 3 1 1 2 4 5 5 5 5 5 5 5 5 4 4 4 4 4 4 3 3 3 4 4 4 4 4 4 4 3 3 3 4 4 4 5 5 5 5 5 5
1 1 1 1 1 1 2 3 4 5 6 6 5 3 1 1 2 4 5 5 5 5 6 6 5 5 5 4 4 4 4 4 3 3 3 3 4 4 4 4 4 4 4 4 4 4 4 4 5 5 5 5 5 5
1 1 1 1 1 2 2 3 4 6 6 7 5 3 1 1 2 4 4 5 5 6 6 6 6 6 5 5 5 4 4 4 3 3 3 3 4 4 4 4 4 4 4 4 4 4 4 4 4 5 5 5 5 4
1 1 1 1 1 2 2 3 4 6 7 7 6 4 2 2 2 3 4 4 5 5 6 6 6 6 6 5 5 4 4 4 3 3 3 3 4 4 4 5 5 5 5 5 5 4 4 4 4 4 4 4 4 4
2 1 1 1 1 2 3 3 4 6 7 7 6 4 2 2 3 3 3 4 5 5 5 6 6 6 6 6 5 4 4 4 3 3 3 3 4 4 4 5 5 5 5 5 5 4 4 4 4 4 4 4 3 3
2 1 1 1 1 2 3 3 4 6 7 7 6 4 2 2 3 3 3 4 5 5 5 6 6 6 6 6 5 5 4 4 4 3 3 4 4 4 4 5 6 5 5 5 4 4 5 5 4 4 3 3 3 3
1 1 1 1 1 2 3 3 4 6 7 6 5 3 3 3 3 3 3 4 5 5 5 5 6 6 7 6 6 6 5 5 5 5 5 5 5 5 5 6 6 5 5 5 5 4 5 4 4 3 3 3 3 3
1 1 1 1 2 2 3 3 4 5 6 5 4 3 3 4 4 3 3 4 4 4 5 5 5 6 6 6 6 6 6 6 6 6 6 6 6 5 5 6 6 5 5 5 5 5 5 4 3 3 2 3 3 4
2 2 2 2 2 2 2 2 3 4 5 4 3 3 4 4 4 4 4 4 4 4 4 4 4 5 6 6 6 6 6 6 6 6 6 6 6 5 5 5 5 5 6 6 6 5 5 5 4 3 3 3 4 5
3 4 4 3 2 1 1 1 1 2 3 3 3 3 4 5 5 4 4 3 3 3 3 4 4 5 5 5 5 5 5 5 5 5 5 5 4 4 4 4 5 5 6 6 6 5 5 5 5 4 4 4 5 5
4 4 4 3 2 1 0 -0 0 1 2 3 4 5 6 6 5 4 4 3 3 3 3 4 4 4 5 5 5 5 5 5 4 4 4 4 3 4 4 4 5 5 5 5 5 5 5 6 6 6 5 6 6 6
5 4 4 3 2 1 1 0 1 2 3 4 6 7 7 5 4 4 3 3 2 3 3 4 4 5 5 6 5 5 5 5 4 4 4 3 3 4 4 4 4 4 5 5 5 5 5 6 6 6 6 6 6 6
4 4 4 3 3 3 2 2 2 3 4 5 6 6 5 4 3 3 2 2 3 3 4 4 4 5 5 5 5 5 5 4 4 3 3 3 4 4 4 4 4 4 4 4 5 5 5 5 5 5 6 6 6 6
4 5 5 4 5 5 5 4 4 4 4 5 5 4 4 4 4 3 3 3 4 4 4 4 4 4 5 5 5 5 4 4 3 3 3 3 4 3 3 4 4 4 4 4 4 4 5 4 4 5 5 5 5 5
5 5 6 6 6 6 6 6 6 5 5 5 4 4 4 4 4 4 4 4 5 5 5 4 4 4 4 4 4 4 4 3 3 3 3 3 3 3 3 3 3 3 3 4 4 4 4 4 3 4 4 4 5 5
5 6 6 6 6 6 6 6 5 5 5 5 4 4 4 4 5 5 5 5 5 5 5 4 4 4 4 4 4 4 3 3 3 3 3 3 3 3 3 3 3 3 3 3 3 3 3 3 2 2 3 3 4 5
5 5 6 5 5 5 5 5 5 5 5 5 5 5 5 5 5 5 5 5 5 5 5 4 4 4 4 4 4 4 3 3 3 3 3 3 2 2 2 2 2 2 3 2 2 2 2 2 1 2 2 3 4 5
4 4 4 4 4 4 4 5 5 5 5 5 5 5 5 5 5 5 5 5 5 5 4 4 4 4 4 4 4 4 3 3 3 2 2 2 2 2 1 1 1 1 1 1 1 1 1 1 1 1 2 3 4 4
4 4 3 4 4 4 4 5 5 5 5 5 5 5 5 5 5 5 5 5 5 5 4 4 4 4 4 4 3 3 3 3 2 2 1 1 1 1 1 0 0 0 0 0 0 1 1 1 1 1 2 3 4 4
3 3 3 4 4 5 5 6 6 5 5 5 5 5 5 5 5 5 5 5 5 5 5 5 5 4 4 3 3 2 2 2 1 1 1 0 0 0 -0 -0 0 0 0 0 0 0 0 0 1 2 3 3 4 4
3 3 3 4 4 5 5 5 5 5 5 5 5 5 5 5 5 5 5 5 5 5 5 5 4 3 2 2 1 1 1 1 1 1 1 0 0 0 -0 0 0 0 0 0 0 0 0 1 2 3 3 3 3 3
3 3 4 4 4 5 5 5 5 4 4 4 5 5 5 5 5 5 5 5 5 5 4 3 3 2 1 1 1 1 1 1 1 1 1 1 1 1 1 0 1 1 0 0 0 0 1 1 2 3 3 3 3 3
3 4 4 4 4 4 5 5 4 4 4 4 5 5 5 4 5 5 4 4 3 3 2 2 2 1 1 1 1 1 1 1 1 2 2 2 2 1 1 1 1 1 1 1 1 1 1 2 2 2 2 2 3 3
3 3 4 4 4 4 4 4 4 4 4 4 4 4 3 3 3 3 3 2 2 1 1 2 2 2 2 2 2 1 1 1 1 2 2 2 2 2 1 1 1 1 1 1 1 1 1 1 2 2 2 2 3 3
3 3 3 4 4 4 4 3 3 3 3 3 3 2 2 2 2 2 2 1 1 1 1 2 2 2 2 2 2 2 1 1 2 2 2 2 2 2 2 1 1 1 1 1 1 1 1 1 1 2 2 2 3 3
2 2 3 3 3 3 3 3 2 2 2 2 2 2 2 2 2 2 1 1 1 1 2 2 2 2 2 2 2 2 2 2 2 2 2 2 2 2 1 1 1 1 1 1 0 0 1 1 1 1 2 2 3 3
2 2 2 2 2 3 3 2 2 2 2 2 2 2 2 1 1 1 1 1 2 2 2 2 2 2 2 2 2 2 2 2 2 2 2 2 1 1 1 1 1 1 1 0 1 1 1 1 1 1 2 3 4 4
2 2 2 2 2 2 2 2 2 2 2 2 2 1 1 1 1 1 1 1 2 2 2 2 2 2 2 2 2 2 2 2 2 2 2 1 1 1 1 0 0 0 0 1 1 1 1 1 2 2 3 4 5 6
2 2 2 1 2 2 2 2 2 2 1 1 1 1 1 1 1 1 1 1 1 2 2 1 1 2 2 2 2 2 2 2 2 2 1 1 1 1 0 0 0 1 1 1 1 2 2 2 3 3 4 5 6 7
1 1 1 1 1 1 1 1 1 1 1 1 1 1 1 1 1 1 1 1 1 1 1 1 1 2 2 2 2 2 2 2 2 2 1 1 1 1 1 1 1 2 2 2 3 3 3 4 4 5 5 6 7 7
1 1 1 1 1 1 1 1 1 1 1 1 1 1 1 1 1 1 1 1 1 1 1 1 1 2 2 2 2 2 2 2 2 2 2 2 2 2 2 3 3 3 4 4 4 4 5 5 5 6 6 7 7 8
1 1 1 1 1 1 1 1 1 1 1 1 1 1 1 1 1 1 1 1 1 1 2 2 2 2 3 3 3 3 3 4 4 4 4 4 4 4 4 5 5 5 6 6 6 6 6 6 7 7 7 8 9 10
1 1 1 1 1 1 1 1 1 1 1 1 1 1 1 1 1 1 1 2 1 2 2 2 3 3 3 4 4 4 5 5 5 5 6 6 6 6 6 6 6 7 7 7 7 7 7 7 7 8 8 9 10 11